Regional Weather Roundup
Issued by NWS Bismarck, ND

Home | Current Version | Previous Version | Text Only | Print | Product List | Glossary On
Versions: 1 2 3 4 5 6 7 8 9 10 11 12 13 14 15 16 17 18 19 20 21 22 23 24 25 26 27 28 29 30 31 32 33 34 35 36 37 38 39 40 41 42 43 44 45 46 47 48 49 50
000
ASUS43 KBIS 291802
RWRBIS

NWR BROADCAST TEXT
NATIONAL WEATHER SERVICE BISMARCK ND
100 PM CDT WED MAR 29 2017

NOTE: "FAIR" INDICATES FEW OR NO CLOUDS BELOW 12,000 FEET WITH NO
SIGNIFICANT WEATHER AND/OR OBSTRUCTIONS TO VISIBILITY.


CITY           SKY/WX    TMP DP  RH WIND       PRES   REMARKS
WILLISTON      FAIR      55  42  61 SW9       29.97F
MINOT          FAIR      55  43  63 S10       29.99F
MINOT AFB      CLOUDY    55  45  70 S13       29.98F
BISMARCK       FAIR      60  40  47 S10       30.07F
DICKINSON      FAIR      53  42  66 S13       30.01F
GARRISON         N/A     53  42  66 SW14      30.01F
HETTINGER ARPT PTSUNNY   56  41  57 SW9       30.06F
JAMESTOWN      FAIR      59  36  42 S14       30.08F
HAZEN          CLOUDY    55  39  54 S16G23    30.04F
LINTON           N/A     57  45  62 SE6       30.10F
MANDAN         FAIR      55  39  54 SW13G18   30.07F
STANLEY        FAIR      52  52 100 SW13      30.00F
TIOGA          MOCLDY    54  50  87 S18       29.97F
WATFORD CITY   FAIR      55  45  67 SW16      29.97F
$$

CITY           SKY/WX    TMP DP  RH WIND       PRES   REMARKS
GRAND FORKS    FAIR      54  44  69 S10       30.12F
GRAND FORKS AF FAIR      57  46  65 S8        30.11F
DEVILS LAKE    PTSUNNY   54  40  59 SW12      30.08F
FARGO          FAIR      57  38  48 S10       30.14F
CAVALIER       FAIR      52  45  76 S8        30.09F
GRAFTON        FAIR      54  43  66 S8        30.13F
GWINNER        CLEAR     61  36  39 MISG      30.11F
LANGDON        FAIR      52  46  82 SW15      30.08F
ROLLA          FAIR      43  43 100 SW15      30.04F
$$

CITY           SKY/WX    TMP DP  RH WIND       PRES   REMARKS
ABERDEEN       FAIR      59  33  37 SE12      30.11F
MOBRIDGE       FAIR      60  37  42 SE10      30.06F
RAPID CITY     PTSUNNY   51  42  71 VRB6      30.08F
GLASGOW        FAIR      56  27  32 W18       29.98F
SIDNEY         FAIR      58  33  39 W10G17    29.97F
WOLF POINT     FAIR      58  29  33 W17G25    29.98F
GLENDIVE       FAIR      59  30  33 W10G16    30.00F
MILES CITY     FAIR      55  30  38 W10       30.04F
BAKER          FAIR      57  34  41 W13G24    30.02F
$$

CITY           SKY/WX    TMP DP  RH WIND       PRES   REMARKS
BILLINGS       CLOUDY    50  33  52 VRB3      30.04F
GREAT FALLS    PTSUNNY   49  27  42 SW22      29.97F
$$





USA.gov is the U.S. government's official web portal to all federal, state and local government web resources and services.